Weather History for Paso Robles, CA

Change the Weather History Date:

Thursday, October 2, 2014

  Actual Average Record
Temperature  
Mean Temperature 72 °F 66 °F  
Max Temperature 96 °F 84 °F 105 °F (2012)
Min Temperature 48 °F 48 °F 35 °F (1971)
Degree Days  
Heating Degree Days 0 2  
Month to date heating degree days 0 4  
Since 1 July heating degree days 1 36  
Cooling Degree Days 7 3  
Month to date cooling degree days 12 6  
Year to date cooling degree days 1264 897  
Growing Degree Days 22 (Base 50)    
Moisture  
Dew Point 36 °F    
Average Humidity 36    
Maximum Humidity 63    
Minimum Humidity 9    
Precipitation  
Precipitation 0.00 in 0.01 in 0.04 in (1956)
Month to date precipitation 0.00 0.02  
Year to date precipitation 4.46 9.14  
Since 1 July precipitation T 0.35  
Sea Level Pressure  
Sea Level Pressure 29.98 in    
Wind  
Wind Speed 5 mph (ENE)    
Max Wind Speed 18 mph    
Max Gust Speed 22 mph    
Visibility 10 miles    
Events      
T = Trace of Precipitation, MM = Missing Value Source: NWS Daily Summary

Daily Weather History Graph

Daily Weather History Graph

Search for Another Location

Airport:

Trip Planner

Search our weather history database for the weather conditions in past years. The results will help you decide how hot, cold, wet, or windy it might be!

Date:

Astronomy

Oct. 02, 2014 Rise Set
Actual Time 6:58 AM PDT 6:44 PM PDT
Civil Twilight 6:32 AM PDT 7:10 PM PDT
Nautical Twilight 6:03 AM PDT 7:39 PM PDT
Astronomical Twilight 5:33 AM PDT 8:09 PM PDT
Moon 2:44 PM PDT (10/2) 12:31 AM PDT (10/2)
Length of Visible Light 12h 37m
Length of Day
11h 46m
First Quarter, 61% of the Moon is Illuminated
Oct 2
First Quarter
Oct 8
Full
Oct 15
Last Quarter
Oct 23
New
Oct 30
First Quarter

Hourly Weather History & Observations

Time (PDT) Temp. Dew Point Humidity Pressure Visibility Wind Dir Wind Speed Gust Speed Precip Events Conditions
12:53 AM 62.1 °F 37.9 °F 41% 29.94 in 10.0 mi NNE 4.6 mph - N/A   Clear
1:53 AM 60.1 °F 37.9 °F 44% 29.95 in 10.0 mi Calm Calm - N/A   Clear
2:53 AM 55.0 °F 37.9 °F 53% 29.95 in 10.0 mi East 4.6 mph - N/A   Clear
3:53 AM 53.1 °F 37.0 °F 55% 29.96 in 10.0 mi Calm Calm - N/A   Clear
4:53 AM 53.1 °F 37.9 °F 57% 29.97 in 10.0 mi NE 4.6 mph - N/A   Clear
5:53 AM 52.0 °F 39.0 °F 61% 29.99 in 10.0 mi Calm Calm - N/A   Clear
6:53 AM 50.0 °F 37.0 °F 61% 30.01 in 10.0 mi Calm Calm - N/A   Clear
7:53 AM 53.1 °F 37.0 °F 55% 30.03 in 10.0 mi Calm Calm - N/A   Clear
8:53 AM 61.0 °F 37.9 °F 42% 30.04 in 10.0 mi NNW 3.5 mph - N/A   Clear
9:53 AM 69.1 °F 37.0 °F 31% 30.04 in 10.0 mi NNW 5.8 mph - N/A   Clear
10:53 AM 78.1 °F 39.0 °F 25% 30.03 in 10.0 mi North 5.8 mph - N/A   Clear
11:53 AM 87.1 °F 37.9 °F 18% 30.01 in 10.0 mi East 11.5 mph 16.1 mph N/A   Clear
12:53 PM 90.0 °F 36.0 °F 15% 29.99 in 10.0 mi ESE 5.8 mph - N/A   Clear
1:53 PM 93.9 °F 32.0 °F 11% 29.96 in 10.0 mi East 9.2 mph - N/A   Clear
2:53 PM 95.0 °F 28.9 °F 10% 29.95 in 10.0 mi ESE 6.9 mph - N/A   Clear
3:53 PM 95.0 °F 30.0 °F 10% 29.94 in 10.0 mi ENE 11.5 mph 20.7 mph N/A   Clear
4:53 PM 93.0 °F 33.1 °F 12% 29.94 in 10.0 mi East 13.8 mph - N/A   Clear
5:53 PM 91.0 °F 33.1 °F 13% 29.94 in 10.0 mi East 13.8 mph - N/A   Clear
6:53 PM 84.0 °F 35.1 °F 17% 29.95 in 10.0 mi ESE 9.2 mph - N/A   Clear
7:53 PM 75.9 °F 35.1 °F 23% 29.97 in 10.0 mi East 5.8 mph - N/A   Clear
8:53 PM 73.9 °F 37.0 °F 26% 29.99 in 10.0 mi NNE 6.9 mph - N/A   Clear
9:53 PM 73.9 °F 36.0 °F 25% 30.01 in 10.0 mi Calm Calm - N/A   Clear
10:53 PM 66.0 °F 36.0 °F 33% 30.02 in 10.0 mi Calm Calm - N/A   Clear
11:53 PM 63.0 °F 35.1 °F 35% 30.02 in 10.0 mi ENE 3.5 mph - N/A   Clear